When you browse on this site, cookies collect data to enhance your experience and personalize the content and advertising you see.
Visit our Privacy Policy to learn more. By continuing to use the site, you agree to this use of cookies and data.
  • In Sweden
  • List of Countries
  • For 7 days
  • Water Temperature
  • Satellite Maps
  • Weather Map
  • Weather Widgets
  • user-avatar
    Login

    Hourly Weather Darwin

    Today, 23 March, Saturday

    Time Temperature Precipitation Wind Pressure Humidity
    00:00 +30°C° 0 mm 7 mps 755 mmHg 82%
    01:00 +30°C° 1.1 mm 6 mps 755 mmHg 84%
    02:00 +30°C° 1.1 mm 6 mps 755 mmHg 86%
    03:00 +30°C° 0 mm 6 mps 754 mmHg 85%
    04:00 +30°C° 1.5 mm 6 mps 754 mmHg 85%
    05:00 +29°C° 1.5 mm 6 mps 754 mmHg 85%
    06:00 +29°C° 1.5 mm 6 mps 754 mmHg 85%
    07:00 +30°C° 0.2 mm 7 mps 755 mmHg 82%
    08:00 +32°C° 0.2 mm 7 mps 755 mmHg 79%
    09:00 +33°C° 0.2 mm 7 mps 755 mmHg 77%
    10:00 +34°C° 1 mm 7 mps 755 mmHg 74%
    11:00 +34°C° 1 mm 8 mps 754 mmHg 71%
    12:00 +35°C° 1 mm 8 mps 754 mmHg 69%
    13:00 +35°C° 0 mm 8 mps 754 mmHg 68%
    14:00 +35°C° 0 mm 8 mps 753 mmHg 67%
    15:00 +35°C° 0 mm 8 mps 753 mmHg 66%
    16:00 +34°C° 0 mm 7 mps 753 mmHg 71%
    17:00 +33°C° 0 mm 7 mps 753 mmHg 76%
    18:00 +32°C° 0 mm 7 mps 753 mmHg 81%
    19:00 +32°C° 0.1 mm 7 mps 753 mmHg 83%
    20:00 +32°C° 0.1 mm 7 mps 753 mmHg 84%
    21:00 +32°C° 0.1 mm 7 mps 754 mmHg 86%
    22:00 +30°C° 1.2 mm 7 mps 754 mmHg 87%
    23:00 +30°C° 1.2 mm 7 mps 754 mmHg 88%

    Tomorrow, 24 March, Sunday

    Time Temperature Precipitation Wind Pressure Humidity
    00:00 +30°C° 1.2 mm 6 mps 755 mmHg 89%
    01:00 +29°C° 0.5 mm 6 mps 754 mmHg 89%
    02:00 +29°C° 0.5 mm 6 mps 754 mmHg 89%
    03:00 +29°C° 0.5 mm 6 mps 754 mmHg 89%
    04:00 +29°C° 0.5 mm 6 mps 754 mmHg 89%
    05:00 +29°C° 0.5 mm 6 mps 754 mmHg 89%
    06:00 +29°C° 0.5 mm 6 mps 754 mmHg 89%
    07:00 +30°C° 0.1 mm 6 mps 755 mmHg 85%
    08:00 +32°C° 0.1 mm 6 mps 755 mmHg 82%
    09:00 +33°C° 0.1 mm 6 mps 755 mmHg 79%
    10:00 +33°C° 0.9 mm 6 mps 755 mmHg 78%
    11:00 +33°C° 0.9 mm 7 mps 755 mmHg 77%
    12:00 +34°C° 0.9 mm 7 mps 755 mmHg 77%
    13:00 +33°C° 1.5 mm 6 mps 755 mmHg 77%
    14:00 +33°C° 1.5 mm 6 mps 754 mmHg 78%
    15:00 +33°C° 1.5 mm 6 mps 754 mmHg 78%
    16:00 +33°C° 0 mm 6 mps 754 mmHg 79%
    17:00 +32°C° 0 mm 5 mps 754 mmHg 79%
    18:00 +32°C° 0 mm 5 mps 755 mmHg 79%
    19:00 +32°C° 0 mm 5 mps 755 mmHg 80%
    20:00 +30°C° 0 mm 5 mps 756 mmHg 81%
    21:00 +30°C° 0 mm 4 mps 756 mmHg 82%
    22:00 +30°C° 0.2 mm 4 mps 756 mmHg 82%
    23:00 +30°C° 0.2 mm 4 mps 756 mmHg 83%

    Day after tomorrow, 25 March, Monday

    Time Temperature Precipitation Wind Pressure Humidity
    00:00 +30°C° 0.2 mm 4 mps 756 mmHg 84%
    01:00 +29°C° 0.7 mm 4 mps 756 mmHg 85%
    02:00 +29°C° 0.7 mm 4 mps 756 mmHg 87%
    03:00 +29°C° 0.7 mm 4 mps 755 mmHg 88%
    04:00 +29°C° 0.6 mm 4 mps 756 mmHg 88%
    05:00 +29°C° 0.6 mm 4 mps 756 mmHg 88%
    06:00 +28°C° 0.6 mm 4 mps 756 mmHg 88%
    07:00 +30°C° 0 mm 3 mps 756 mmHg 83%
    08:00 +31°C° 0 mm 3 mps 757 mmHg 79%
    09:00 +33°C° 0 mm 3 mps 757 mmHg 74%
    10:00 +34°C° 0 mm 4 mps 757 mmHg 71%
    11:00 +34°C° 0 mm 4 mps 757 mmHg 68%
    12:00 +35°C° 0 mm 5 mps 757 mmHg 65%
    13:00 +35°C° 0.1 mm 5 mps 756 mmHg 65%
    14:00 +35°C° 0.1 mm 5 mps 756 mmHg 64%
    15:00 +35°C° 0.1 mm 5 mps 755 mmHg 63%
    16:00 +34°C° 0 mm 5 mps 755 mmHg 67%
    17:00 +33°C° 0 mm 5 mps 756 mmHg 72%
    18:00 +32°C° 0 mm 4 mps 756 mmHg 76%
    19:00 +32°C° 0 mm 4 mps 757 mmHg 77%
    20:00 +30°C° 0 mm 3 mps 757 mmHg 78%
    21:00 +30°C° 0 mm 3 mps 758 mmHg 79%
    22:00 +30°C° 0 mm 3 mps 758 mmHg 79%
    23:00 +30°C° 0 mm 3 mps 758 mmHg 80%

    26 March, Tuesday

    Time Temperature Precipitation Wind Pressure Humidity
    00:00 +30°C° 0 mm 3 mps 757 mmHg 80%
    01:00 +30°C° 0.1 mm 3 mps 757 mmHg 81%
    02:00 +30°C° 0.1 mm 4 mps 757 mmHg 82%
    03:00 +30°C° 0.1 mm 4 mps 757 mmHg 83%
    04:00 +29°C° 1 mm 4 mps 757 mmHg 85%
    05:00 +29°C° 1 mm 4 mps 757 mmHg 88%
    06:00 +29°C° 1 mm 4 mps 757 mmHg 90%
    07:00 +30°C° 0 mm 4 mps 758 mmHg 86%
    08:00 +32°C° 0 mm 4 mps 758 mmHg 81%
    09:00 +33°C° 0 mm 4 mps 759 mmHg 76%
    10:00 +34°C° 0.3 mm 4 mps 758 mmHg 74%
    11:00 +34°C° 0.3 mm 4 mps 758 mmHg 71%
    12:00 +35°C° 0.3 mm 4 mps 758 mmHg 69%
    13:00 +34°C° 0.8 mm 5 mps 757 mmHg 71%
    14:00 +34°C° 0.8 mm 5 mps 756 mmHg 74%
    15:00 +34°C° 0.8 mm 5 mps 756 mmHg 76%
    16:00 +33°C° 1.4 mm 4 mps 756 mmHg 79%
    17:00 +32°C° 1.4 mm 4 mps 756 mmHg 82%
    18:00 +30°C° 1.4 mm 3 mps 756 mmHg 85%
    19:00 +30°C° 0 mm 3 mps 757 mmHg 85%
    20:00 +30°C° 0 mm 3 mps 758 mmHg 85%
    21:00 +29°C° 0 mm 2 mps 758 mmHg 86%
    22:00 +29°C° 0 mm 2 mps 758 mmHg 86%
    23:00 +29°C° 0 mm 2 mps 758 mmHg 86%

    27 March, Wednesday

    Time Temperature Precipitation Wind Pressure Humidity
    00:00 +29°C° 0 mm 2 mps 758 mmHg 87%
    01:00 +29°C° 1.1 mm 2 mps 757 mmHg 88%
    02:00 +29°C° 1.1 mm 2 mps 757 mmHg 88%
    03:00 +28°C° 1.1 mm 2 mps 756 mmHg 89%
    04:00 +28°C° 1.3 mm 2 mps 756 mmHg 89%
    05:00 +28°C° 1.3 mm 2 mps 757 mmHg 89%
    06:00 +28°C° 1.3 mm 2 mps 757 mmHg 90%
    07:00 +29°C° 1 mm 2 mps 758 mmHg 85%
    08:00 +30°C° 1 mm 2 mps 758 mmHg 80%
    09:00 +32°C° 1 mm 2 mps 758 mmHg 75%
    10:00 +34°C° 1 mm 2 mps 758 mmHg 69%
    11:00 +36°C° 1 mm 2 mps 757 mmHg 62%
    12:00 +37°C° 1 mm 2 mps 757 mmHg 55%
    13:00 +36°C° 0.6 mm 2 mps 756 mmHg 60%
    14:00 +36°C° 0.6 mm 3 mps 755 mmHg 65%
    15:00 +35°C° 0.6 mm 4 mps 755 mmHg 70%
    16:00 +33°C° 2.1 mm 4 mps 755 mmHg 75%
    17:00 +31°C° 2.1 mm 3 mps 756 mmHg 80%
    18:00 +30°C° 2.1 mm 3 mps 756 mmHg 85%
    19:00 +30°C° 0.9 mm 3 mps 757 mmHg 86%
    20:00 +29°C° 0.9 mm 3 mps 757 mmHg 87%
    21:00 +29°C° 0.9 mm 3 mps 757 mmHg 88%
    22:00 +29°C° 0.7 mm 3 mps 757 mmHg 88%
    23:00 +28°C° 0.7 mm 3 mps 757 mmHg 88%

    28 March, Thursday

    Time Temperature Precipitation Wind Pressure Humidity
    00:00 +28°C° 0.7 mm 3 mps 757 mmHg 89%
    01:00 +28°C° 0.2 mm 3 mps 756 mmHg 88%
    02:00 +28°C° 0.2 mm 2 mps 756 mmHg 88%
    03:00 +28°C° 0.2 mm 2 mps 755 mmHg 88%
    04:00 +28°C° 0 mm 2 mps 755 mmHg 88%
    05:00 +28°C° 0 mm 2 mps 756 mmHg 87%
    06:00 +27°C° 0 mm 2 mps 756 mmHg 87%
    07:00 +29°C° 0 mm 2 mps 756 mmHg 82%
    08:00 +30°C° 0 mm 2 mps 757 mmHg 76%
    09:00 +31°C° 0 mm 2 mps 757 mmHg 71%
    10:00 +33°C° 0 mm 1 mps 756 mmHg 65%
    11:00 +34°C° 0 mm 1 mps 756 mmHg 60%
    12:00 +36°C° 0 mm 1 mps 756 mmHg 54%
    13:00 +35°C° 0.8 mm 1 mps 755 mmHg 59%
    14:00 +34°C° 0.8 mm 1 mps 754 mmHg 63%
    15:00 +35°C° 0.8 mm 2 mps 754 mmHg 67%
    16:00 +34°C° 2.6 mm 2 mps 754 mmHg 72%
    17:00 +31°C° 2.6 mm 2 mps 754 mmHg 78%
    18:00 +30°C° 2.6 mm 2 mps 755 mmHg 83%
    19:00 +30°C° 0.5 mm 1 mps 755 mmHg 84%
    20:00 +30°C° 0.5 mm 1 mps 756 mmHg 85%
    21:00 +29°C° 0.5 mm 1 mps 756 mmHg 85%
    22:00 +29°C° 0.1 mm 2 mps 756 mmHg 86%
    23:00 +29°C° 0.1 mm 2 mps 756 mmHg 86%
    Show more